Tracking 25707 objects as of 29-Jun-2022
HD Live streaming from Space Station
objects crossing your sky now

SBUDNIC

Track SBUDNIC now!
10-day predictions


NORAD ID: 52774
Int'l Code: 2022-057AU
Perigee: 524.3 km
Apogee: 536.9 km
Inclination: 97.5 °
Period: 95.1 minutes
Semi major axis: 6901 km
RCS: Unknown
Launch date: May 25, 2022
Source: United States (US)
Launch site: AIR FORCE EASTERN TEST RANGE (AFETR)
aabbcc
Your satellite tracking list
Your tracking list is empty




NASA's NSSDC Master Catalog

Two Line Element Set (TLE):
1 52774U 22057AU  22180.26313505  .00007954  00000-0  43894-3 0  9995
2 52774  97.5193 294.8279 0009118 125.5796 234.6287 15.14180846  5214
Source of the keplerian elements: AFSPC